#timestamp,LO_Frequency,Hit,StdDev 
1592701215.7,286047000.9,N
1592701235.6,286047000.4,N
1592701255.4,286047001.1,N
1592701275.2,286046998.1,N
1592701295.1,286046998.8,N
1592701296.0,286046998.8,N
1592701315.8,286046998.1,N
1592701335.7,286046999.0,N
1592701355.5,286046998.6,N
1592701375.3,286046998.9,N
1592701395.2,286046999.3,N
1592701415.0,286046999.3,N
1592701415.9,286046999.3,N
1592701435.7,286046999.0,N
1592701455.6,286047000.8,N
1592701475.4,286046994.9,Y
1592701495.3,286046998.2,P
1592701515.1,286046998.6,N
1592701535.9,286046998.6,N
1592701555.7,286046996.5,Y
1592701575.5,286047001.2,P
1592701595.4,286047000.4,N
1592701615.2,286047000.3,N
1592701635.0,286047000.8,N
1592701636.0,286047000.8,N
1592701655.8,286046998.6,N
1592701675.6,286047000.7,N
1592701695.5,286046996.5,Y
1592701715.3,286046999.5,P
1592701735.1,286046998.6,P
1592701755.9,286046998.5,N
1592701775.7,286047001.0,N
1592701795.6,286047000.0,N
1592701815.4,286047000.4,N
1592701835.2,286046998.5,N
1592701855.1,286046999.8,N
1592701856.0,286046999.8,N
1592701875.8,286046998.9,N
1592701895.7,286047002.6,Y
1592701915.5,286047001.5,P
1592701935.3,286047000.8,N
1592701955.2,286046999.7,N
1592701975.0,286047000.3,N
1592701975.9,286047000.3,N
1592701995.8,286047002.7,Y
1592702015.6,286047000.2,P
1592702035.4,286047000.3,P
1592702055.3,286047001.2,P
1592702075.1,286047000.6,N
1592702095.8,286046999.8,N
1592702115.7,286046999.8,N
1592702135.5,286047001.8,Y
1592702155.4,286047001.7,P
1592702175.2,286047002.2,P
1592702195.0,286047003.1,P
1592702196.0,286047003.1,Y
1592702215.8,286047000.0,P
1592702235.6,286047001.7,N
1592702255.5,286046998.1,N
1592702275.3,286047000.1,N
1592702295.2,286047000.1,N
1592702315.9,286047001.1,N
1592702335.7,286046998.8,N
1592702355.6,286047000.3,N
1592702375.4,286047001.1,N
1592702395.2,286046996.5,Y
1592702415.1,286046999.0,P
1592702416.0,286046999.0,N
1592702435.8,286046996.6,P
1592702455.7,286046997.1,N
1592702475.5,286046996.5,N
1592702495.3,286046998.1,N
1592702515.2,286046997.3,N
1592702535.0,286046998.6,N
1592702535.9,286046998.6,N
1592702555.8,286047001.2,N
1592702575.6,286046998.9,N
1592702595.4,286047000.8,N
1592702615.3,286047000.4,N
1592702635.1,286046999.9,N
1592702655.8,286046997.1,N
1592702675.7,286047000.7,N
1592702695.5,286047000.7,N
1592702715.4,286046996.7,N
1592702735.2,286046998.2,N
1592702755.0,286046998.1,N
1592702755.9,286046998.1,N
1592702775.8,286046997.6,N
1592702795.6,286046998.6,N
1592702815.5,286046999.6,N
1592702835.3,286047000.2,N
1592702855.1,286046998.8,N
1592702875.9,286047001.0,N
1592702895.7,286046998.1,N
1592702915.6,286046998.5,N
1592702935.4,286047001.2,N
1592702955.2,286046997.4,N
1592702975.1,286047002.2,N
1592702976.0,286047002.2,N
1592702995.8,286046998.1,N
1592703015.7,286046999.4,N
1592703035.5,286047000.7,N
1592703055.3,286046999.7,N
1592703075.2,286046998.8,N
1592703095.0,286047000.1,N
1592703095.9,286047000.1,N
1592703115.8,286046999.7,N
1592703135.6,286047000.4,N
1592703155.4,286047001.1,N
1592703175.3,286047002.8,N
1592703195.1,286046998.2,N
1592703215.9,286047002.8,N
1592703235.7,286046999.5,N
1592703255.5,286046999.0,N
1592703275.4,286047004.0,N
1592703295.2,286046999.8,N
1592703315.1,286046998.8,N
1592703316.0,286046998.8,N
1592703335.8,286046999.0,N
1592703355.6,286047001.9,N
1592703375.5,286046998.9,N
1592703395.3,286046997.1,N
1592703415.1,286046998.4,N
1592703435.9,286047002.3,N
1592703455.7,286047003.1,N
1592703475.6,286047003.7,N
1592703495.4,286047003.6,N
1592703515.2,286047002.5,N
1592703535.1,286047002.8,N
1592703536.0,286047002.8,N
1592703555.8,286047000.6,N
1592703575.7,286046999.9,N
1592703595.5,286047001.6,N
1592703615.3,286047002.8,N
1592703635.2,286047003.6,N
1592703655.0,286047002.5,N
1592703655.9,286047002.5,N
1592703675.8,286047001.3,N
1592703695.6,286047001.8,N
1592703715.4,286047003.9,N
1592703735.3,286047002.4,N
1592703755.1,286047000.0,N
1592703775.8,286047002.7,N
1592703795.7,286047001.9,N
1592703815.5,286047002.5,N
1592703835.4,286047003.8,N
1592703855.2,286047004.4,N
1592703875.0,286047003.7,N
1592703875.9,286047003.7,N
1592703895.8,286047003.0,N
1592703915.6,286047003.5,N
1592703935.5,286047003.7,N
1592703955.3,286047001.4,N
1592703975.1,286047002.1,N
1592703995.9,286047002.6,N
1592704015.7,286047002.5,N
1592704035.5,286047002.2,N
1592704055.4,286047004.0,Y
1592704075.2,286046999.8,P
1592704095.1,286046989.8,P
1592704096.0,286046989.8,N
1592704115.8,286046988.3,N
1592704135.6,286046985.6,N
1592704155.5,286046986.1,N
1592704175.3,286046986.5,N
1592704195.2,286046986.4,N
1592704215.9,286046984.3,N
1592704235.7,286046985.0,N
1592704255.6,286046984.9,N
1592704275.4,286046984.9,N
1592704295.2,286046985.0,N
1592704315.1,286046997.7,N
1592704316.0,286046997.7,N
1592704335.8,286046996.4,N
1592704355.7,286046996.2,N
1592704375.5,286046997.9,N
1592704395.4,286046995.7,N
1592704415.2,286046997.4,N
1592704435.0,286046996.4,N
1592704435.9,286046996.4,N
1592704455.8,286046995.8,N
1592704475.6,286046995.5,N
1592704495.5,286046995.3,N
1592704515.3,286046996.2,N
1592704535.1,286046999.6,N
1592704555.9,286046997.4,N
1592704575.7,286046995.0,N
1592704595.5,286046995.0,N
1592704615.4,286046995.0,N
1592704635.2,286046995.3,N
1592704655.1,286046993.4,N
1592704656.0,286046993.4,N
1592704675.8,286046993.4,N
1592704695.6,286046995.5,N
1592704715.5,286046995.9,N
1592704735.3,286046993.9,N
1592704755.2,286046993.7,N
1592704775.9,286046991.8,N
1592704795.7,286046993.4,N
